Location: Haliburton Scout Reserve
(45.0900°N, 78.3200°W)
Time: 13:03:30
(UTC-04:00)

RS-44 - Visible Passes

Search period start: 17 May 2022 00:00
Search period end: 27 May 2022 00:00
Orbit: 1174 x 1511 km, 82.5° (Epoch: 16 May)

Date Brightness Start Highest point End Pass type
(mag) Time Alt. Az. Time Alt. Az. Time Alt. Az.
17 May ? 01:43:24 25° SE 01:46:31 37° E 01:53:01 10° NNE visible
17 May ? 03:35:59 24° SW 03:39:49 43° WNW 03:46:44 10° N visible
18 May ? 02:07:02 35° SSE 02:10:01 58° E 02:17:10 10° NNE visible
18 May ? 03:59:38 16° WSW 04:03:57 28° WNW 04:10:07 10° N visible
19 May ? 00:38:05 11° ESE 00:41:27 16° ENE 00:45:29 10° NE visible
19 May ? 02:30:40 39° S 02:33:42 89° E 02:41:05 10° N visible
19 May ? 04:23:37 10° W 04:28:19 18° WNW 04:33:06 10° NNW visible
20 May ? 01:01:42 20° ESE 01:04:41 26° E 01:10:28 10° NNE visible
20 May ? 02:54:17 33° SW 02:57:31 60° WNW 03:04:49 10° N visible
20 May ? 04:50:54 10° WNW 04:52:54 11° NW 04:54:56 10° NW visible
21 May ? 01:25:19 30° SE 01:28:05 41° E 01:34:52 10° NNE visible
21 May ? 03:17:54 24° WSW 03:21:32 38° WNW 03:28:23 10° N visible
21 May ? 23:58:53 10° E 23:59:52 10° ENE 00:00:51 10° ENE visible
22 May ? 01:48:55 40° SSE 01:51:37 66° E 01:58:56 10° NNE visible
22 May ? 03:41:29 15° WSW 03:45:45 25° WNW 03:51:42 10° N visible
23 May ? 00:19:54 14° ESE 00:22:58 18° ENE 00:27:39 10° NE visible
23 May ? 02:12:29 41° SSW 02:15:20 82° W 02:22:50 10° N visible
23 May ? 04:05:54 10° W 04:10:11 16° WNW 04:14:35 10° NNW visible
24 May ? 00:43:28 23° ESE 00:46:14 30° E 00:52:25 10° NNE visible
24 May ? 02:36:03 32° SW 02:39:14 53° WNW 02:46:32 10° N visible
25 May ? 01:07:02 34° SE 01:09:39 47° E 01:16:43 10° NNE visible
25 May ? 02:59:37 22° WSW 03:03:18 35° WNW 03:10:03 10° N visible
25 May ? 23:38:39 10° E 23:41:22 12° ENE 23:44:07 10° NE visible
26 May ? 01:30:34 42° SSE 01:33:14 74° E 01:40:45 10° NNE visible
26 May ? 03:23:09 13° WSW 03:27:35 23° WNW 03:33:18 10° NNW visible
